Flag for Portugal Weather past 2 weeks in Porto, Portugal

Now
61 °F

Rain. Partly sunny.


Feels Like: 61 °F
Forecast: 52 / 60 °F
Wind: 18 mph from Southwest

Location: Porto / Pedras Rubras

Current Time: Apr 25, 2015 at 5:51:05 PM

Latest Report: Apr 25, 2015 at 5:30 PM


Visibility: 4 mi

Pressure: 29.83 "Hg

Humidity: 94%

Dew point: 59 °F

Location of PortoLocation

Historic Weather in Porto — Graph

°F

Porto temperature yesterday

Maximum temperature yesterday: 61 °F (at 2:30 PM)
Minimum temperature yesterday: 55 °F (at 2:00 AM)
Average temperature yesterday: 58 °F

Past Weeks' High & Low Weather Summary

 TemperatureHumidityPressure
High81 °F (Apr 13, 3:00 PM)100% (Apr 10, 10:30 PM)30.30 "Hg (Apr 10, 10:30 PM)
Low45 °F (Apr 11, 5:00 AM)26% (Apr 13, 3:00 PM)29.83 "Hg (Apr 25, 4:00 PM)
Average58 °F80%30.07 "Hg
* Reported Apr 10 4:00 PM — Apr 25 4:30 PM, Porto, Weather by CustomWeather, © 2015

Note: Actual official high and low records may vary slightly from our data, if they occured in-between our weather recording intervals... More about our weather records

Advertising

Porto weather history for previous 24 hours

 ConditionsComfort  
Time TempWeatherWind HumidityBarometerVisibility
4:30 PM
Sat, Apr 25
61 °FLight rain. Partly sunny.17 mph94%29.83 "Hg5 mi
4:00 PM61 °FLight rain. Partly sunny.21 mph94%29.83 "Hg4 mi
3:30 PM61 °FRain. Fog.15 mph94%29.86 "Hg2 mi
3:00 PM61 °FLight rain. Partly sunny.15 mph94%29.86 "Hg4 mi
2:30 PM63 °FPartly sunny.18 mph88%29.86 "HgN/A
2:00 PM63 °FPartly sunny.20 mph88%29.89 "HgN/A
1:30 PM61 °FBroken clouds.17 mph94%29.89 "HgN/A
1:00 PM63 °FBroken clouds.21 mph88%29.89 "HgN/A
12:30 PM63 °FBroken clouds.21 mph88%29.89 "HgN/A
12:00 PM63 °FBroken clouds.18 mph88%29.92 "HgN/A
11:30 AM63 °FBroken clouds.20 mph88%29.92 "HgN/A
11:00 AM63 °FBroken clouds.18 mph88%29.92 "HgN/A
10:30 AM61 °FBroken clouds.16 mph94%29.92 "HgN/A
10:00 AM61 °FBroken clouds.15 mph94%29.92 "HgN/A
9:30 AM61 °FPartly sunny.15 mph94%29.92 "HgN/A
9:00 AM61 °FPartly sunny.14 mph94%29.92 "HgN/A
8:30 AM61 °FBroken clouds.14 mph88%29.92 "HgN/A
8:00 AM61 °FBroken clouds.14 mph94%29.92 "HgN/A
7:30 AM59 °FPartly cloudy.13 mph94%29.92 "HgN/A
7:00 AM59 °FPassing clouds.14 mph94%29.92 "HgN/A
6:30 AM59 °FPartly cloudy.15 mph94%29.92 "HgN/A
6:00 AM59 °FPartly cloudy.16 mph100%29.92 "HgN/A
5:30 AM59 °FPartly cloudy.16 mph100%29.89 "HgN/A
5:00 AM59 °FMostly cloudy.16 mph100%29.92 "HgN/A
4:30 AM59 °FLight rain. Low clouds.16 mph94%29.92 "HgN/A
4:00 AM59 °FLight rain. Partly cloudy.12 mph94%29.92 "Hg4 mi
3:30 AM59 °FLight rain. Mostly cloudy.15 mph100%29.92 "Hg5 mi
3:00 AM59 °FMostly cloudy.14 mph100%29.92 "HgN/A
2:30 AM59 °FMostly cloudy.14 mph94%29.92 "HgN/A
2:00 AM59 °FLight rain. Overcast.13 mph94%29.95 "HgN/A
1:30 AM59 °FLight rain. Partly cloudy.14 mph94%29.95 "HgN/A
1:00 AM59 °FLight rain. Partly cloudy.13 mph94%29.95 "HgN/A
12:30 AM59 °FPassing clouds.13 mph94%29.95 "HgN/A
12:00 AM59 °FMostly cloudy.14 mph94%29.95 "HgN/A
11:30 PM
Fri, Apr 24
59 °FLow clouds.13 mph94%29.95 "HgN/A
11:00 PM59 °FPartly cloudy.12 mph100%29.98 "HgN/A
10:30 PM59 °FPartly cloudy.10 mph94%29.98 "HgN/A
10:00 PM59 °FPartly cloudy.13 mph94%29.98 "HgN/A
9:30 PM59 °FPassing clouds.10 mph94%29.98 "HgN/A
9:00 PM59 °FBroken clouds.10 mph100%29.95 "HgN/A
8:30 PM61 °FBroken clouds.12 mph94%29.95 "HgN/A
8:00 PM61 °FPartly sunny.8 mph94%29.95 "HgN/A
7:30 PM61 °FPartly sunny.12 mph94%29.95 "HgN/A
7:00 PM61 °FPartly sunny.10 mph94%29.95 "HgN/A
6:30 PM61 °FPartly sunny.9 mph94%29.95 "HgN/A
6:00 PM61 °FBroken clouds.12 mph94%29.95 "HgN/A
5:30 PM59 °FSprinkles. Broken clouds.8 mph94%29.95 "HgN/A
5:00 PM61 °FBroken clouds.8 mph94%29.95 "HgN/A
Weather by CustomWeather, © 2015

See weather overviewHow to use our weather pages